RH
65 55 59 65 67 85 80 76 86 72 95 74 74 77 88 92 92 94 93 95 95 96 96 95 99 100 100 100 98 100 98 89 94 90 93 95 95 96 99 99 100 100 100 100
71 51 59 61 55 65 82 93 96 98 93 79 82 97 96 88 90 94 93 94 96 96 90 93 96 100 100 98 94 92 96 96 89 96 85 90 96 91 94 98 100 100 100 100
54 61 60 43 56 71 78 92 74 80 62 86 86 81 90 89 93 95 94 96 97 98 96 94 98 100 100 99 92 89 89 89 92 94 97 91 88 96 96 96 97 99 100 100
92 60 53 30 48 51 60 63 81 84 82 78 77 80 87 90 97 99 93 82 88 94 96 98 98 100 100 93 92 90 89 89 91 98 99 94 91 91 92 97 96 96 99 100
83 92 52 39 52 60 55 34 72 69 69 83 91 92 73 92 93 94 94 86 78 86 90 88 100 100 100 92 89 90 95 98 93 96 100 99 99 98 92 93 97 94 95 98
93 82 54 46 62 60 57 47 59 72 69 77 88 80 68 87 96 88 80 76 73 76 85 85 83 98 98 93 93 96 96 98 95 93 95 96 96 100 99 96 95 98 97 97
97 95 68 65 73 60 37 41 64 75 74 88 85 71 66 93 93 83 80 76 74 78 82 84 83 96 100 100 93 98 98 94 89 90 94 95 96 90 93 95 98 99 99 98
97 96 65 73 72 40 53 74 84 88 83 81 80 83 83 81 84 78 72 65 58 77 73 71 82 86 92 99 89 95 91 90 89 88 90 94 99 91 92 93 100 100 100 100
71 61 65 76 69 76 79 68 75 84 67 79 80 78 77 80 84 78 68 65 62 66 67 63 58 86 92 84 84 90 91 89 88 88 88 94 93 95 99 98 100 99 99 98
59 67 71 65 70 82 82 76 60 66 79 74 77 70 79 80 81 79 70 70 66 64 72 67 51 69 67 66 84 88 87 87 87 90 93 93 93 92 99 100 100 100 98 96
74 64 66 73 70 71 75 77 76 71 67 73 82 76 78 82 82 75 72 69 69 68 68 62 59 61 61 62 71 83 89 88 89 91 93 95 94 95 100 96 100 100 100 100
77 70 71 63 69 59 77 69 72 83 80 72 71 81 77 81 72 71 71 67 70 69 68 61 56 57 56 57 63 74 89 98 91 100 100 100 96 94 84 96 93 99 98 97
72 81 76 66 75 68 72 69 76 88 80 82 67 65 75 81 70 73 79 81 79 76 67 59 54 57 56 59 63 65 70 68 73 96 100 100 100 100 99 91 94 91 95 98
79 87 78 83 70 76 78 70 67 70 70 74 73 74 76 81 76 77 78 66 68 70 66 62 62 62 56 62 70 72 73 75 82 74 79 100 100 100 100 100 97 97 86 95
80 86 76 68 82 80 68 68 76 72 71 70 61 70 72 81 81 74 65 65 71 74 71 68 68 66 64 70 76 76 81 80 79 83 90 98 97 100 100 100 100 100 97 88
77 79 76 81 76 70 71 77 86 78 77 78 72 69 65 67 73 73 72 74 84 83 78 81 80 72 80 90 92 87 81 82 98 98 92 90 96 98 99 100 100 99 99 99
93 89 89 87 83 75 77 76 84 85 81 82 80 74 78 83 82 80 72 74 79 80 80 81 76 79 83 84 88 92 91 92 96 100 86 82 88 100 99 100 100 100 99 96
96 95 95 95 94 90 83 79 83 83 87 81 82 83 89 92 90 80 77 84 85 79 76 74 77 82 94 97 99 100 100 96 92 92 93 94 95 97 100 94 98 99 98 96
94 94 94 95 92 92 89 88 86 84 86 84 90 92 87 88 90 90 90 93 94 95 71 77 78 94 88 88 100 100 98 99 100 98 97 100 96 88 94 100 100 100 100 97
89 88 88 89 90 93 94 93 95 96 92 94 95 96 96 93 90 91 93 100 92 82 79 82 84 91 93 95 100 98 96 98 99 97 97 99 100 100 96 97 97 98 100 98
89 90 89 91 92 90 93 98 98 96 96 96 96 96 96 95 95 96 97 99 85 77 90 98 100 99 92 90 90 89 92 95 96 97 98 98 96 95 94 92 95 99 99 96
92 92 92 93 93 92 94 98 99 97 97 97 96 96 96 96 95 95 95 96 82 84 91 90 88 94 99 96 97 97 96 97 98 98 97 96 98 98 97 97 99 98 97 96
93 93 95 93 93 93 94 88 93 97 96 97 97 97 96 96 97 96 93 85 90 87 99 96 97 92 89 96 86 90 98 98 97 97 97 97 97 98 96 96 97 97 97 96
93 91 94 95 92 89 90 92 93 96 99 97 96 96 97 96 94 94 95 96 98 96 94 97 93 87 97 95 90 90 94 96 96 96 96 97 98 97 96 96 95 95 96 96
95 91 89 93 89 89 90 90 94 92 84 86 87 89 96 96 98 95 97 96 98 96 94 95 92 96 94 89 93 95 98 97 96 97 98 96 96 96 96 96 96 95 96 96
95 96 93 89 88 89 92 95 91 82 82 86 84 82 84 88 98 97 96 97 96 97 96 95 94 94 98 97 97 97 96 96 96 94 98 96 96 96 96 96 96 96 96 96
86 86 87 84 87 91 95 88 88 92 94 95 94 95 96 96 99 94 95 96 96 96 96 96 96 98 98 96 96 96 96 96 99 98 96 96 96 96 96 96 96 96 96 96
Wind_Speed
7 14 7 9 9 4 5 5 4 4 5 9 9 6 6 5 6 5 5 5 6 8 12 15 16 18 20 22 23 23 22 25 27 28 23 20 20 19 19 18 19 36 43 45
5 3 3 8 9 8 4 3 6 3 10 8 5 4 5 7 7 8 6 5 5 4 13 16 17 19 21 24 24 22 21 22 25 25 25 23 24 20 23 21 20 19 27 36
5 5 7 6 6 4 3 4 6 4 8 2 4 6 4 6 5 7 8 7 6 6 11 12 14 20 21 20 22 23 22 24 25 26 25 24 24 20 21 24 21 23 23 25
4 6 4 5 2 3 6 7 9 5 6 7 6 5 7 6 6 7 6 8 10 14 14 19 21 19 20 20 20 22 24 24 24 25 26 27 26 25 23 25 24 24 25 28
1 2 8 6 2 5 4 7 7 9 7 4 4 5 8 4 5 6 6 10 9 13 19 21 15 18 19 20 21 22 24 24 24 25 24 25 24 24 24 25 26 23 25 30
2 1 4 6 3 2 3 5 6 7 5 3 2 1 5 4 4 8 13 13 12 13 15 17 17 19 20 20 19 21 22 24 24 23 24 25 24 23 22 22 24 25 25 28
3 4 9 5 5 2 5 6 3 6 6 7 5 6 4 2 4 10 12 12 13 14 16 17 16 15 14 18 20 22 22 22 23 22 22 23 23 25 26 25 23 22 23 26
2 0 8 6 4 6 5 3 2 3 4 6 8 4 5 7 7 11 13 15 14 14 16 15 14 13 14 13 18 21 22 23 24 24 23 22 22 22 22 23 22 21 20 23
9 6 3 8 5 4 4 5 5 3 5 6 5 5 5 6 7 11 15 16 16 16 19 19 17 14 17 20 20 21 23 25 24 24 24 23 24 24 21 22 19 18 17 17
2 3 5 8 5 4 5 6 7 6 5 5 7 7 7 6 6 9 15 15 15 15 17 22 20 17 19 21 21 22 22 23 24 23 24 24 25 22 21 19 19 18 16 17
6 8 5 3 5 6 4 5 10 9 8 9 5 9 7 6 6 12 15 16 15 15 18 21 18 18 18 18 18 21 24 24 23 23 23 25 25 23 21 22 18 20 20 20
5 4 3 6 4 3 5 7 6 5 6 7 9 9 7 7 14 15 18 17 17 19 18 20 19 18 17 15 15 16 19 18 23 23 20 23 25 27 24 19 19 20 21 22
5 4 6 15 10 5 5 6 4 5 9 6 10 13 12 8 15 15 15 16 18 20 19 20 20 21 19 17 17 16 18 20 21 17 17 17 17 17 20 27 21 18 17 20
7 0 6 3 5 4 6 14 15 15 16 13 16 15 15 14 16 16 18 20 18 18 18 19 20 23 22 19 17 18 19 19 19 21 21 18 19 19 18 18 20 24 25 20
2 6 10 14 10 10 11 7 7 9 7 10 18 17 16 14 14 19 19 17 16 17 19 19 22 25 18 18 19 21 20 22 21 22 22 18 20 20 21 20 18 20 24 24
11 10 8 6 10 10 8 6 8 11 8 12 13 15 20 20 21 19 17 13 12 16 16 17 22 23 21 19 20 21 22 21 19 21 23 23 19 18 18 19 19 17 18 19
4 10 13 14 13 14 12 9 6 7 11 12 16 20 15 14 15 16 15 11 13 17 18 18 23 21 19 20 21 22 22 23 19 19 23 22 20 17 18 19 18 18 19 23
6 9 10 12 14 15 14 13 13 16 12 19 15 11 11 11 10 17 16 14 16 20 19 18 17 16 14 15 17 19 19 19 19 20 22 22 22 20 18 19 19 19 19 22
16 15 18 17 20 19 17 15 16 19 20 17 14 14 15 17 17 17 15 16 16 19 27 16 16 17 20 19 18 20 21 22 22 24 24 22 23 24 21 20 20 19 20 19
16 18 21 22 22 20 18 19 20 20 20 15 16 16 14 16 15 16 16 22 22 23 23 20 17 16 17 16 15 16 18 20 21 22 21 20 19 21 22 18 18 19 18 19
16 19 20 21 21 22 20 20 19 17 18 16 13 13 13 19 19 18 17 12 20 20 17 18 17 18 16 16 16 17 17 18 19 20 21 21 20 20 20 20 19 18 18 18
19 18 21 21 21 21 24 24 21 20 19 18 16 17 17 17 19 19 19 20 27 19 13 14 16 16 18 17 19 19 18 18 19 19 20 21 20 19 18 18 18 17 17 17
19 20 20 21 21 23 22 22 22 22 20 19 18 18 17 18 18 13 9 14 16 18 18 18 15 17 17 12 11 11 13 15 16 17 18 17 17 18 17 17 17 16 16 15
19 21 21 23 23 20 18 24 25 25 22 21 21 22 21 19 20 18 21 20 17 16 18 15 14 17 10 6 10 11 10 10 11 13 15 15 16 17 16 17 17 16 15 13
19 20 20 21 19 17 22 25 25 21 24 23 23 22 21 22 21 25 24 23 17 17 18 15 13 14 16 16 12 10 9 9 8 6 7 10 11 12 13 13 13 13 13 12
20 18 18 20 20 20 23 23 20 23 24 23 25 26 26 26 25 23 22 19 16 13 14 16 16 13 10 8 6 5 5 7 8 9 9 9 9 10 11 12 12 11 10 8
18 20 20 21 21 24 24 25 24 23 25 25 26 26 21 23 22 21 20 15 14 14 13 11 8 5 4 4 5 5 5 6 4 8 7 7 7 8 9 10 8 5 5 6
Wind_Direction
251 261 251 248 259 194 173 206 162 255 229 272 281 270 262 265 287 295 300 292 307 325 332 347 343 341 339 340 354 357 349 352 340 336 333 333 316 313 298 273 257 225 218 218
290 301 203 277 249 216 197 194 269 276 283 225 262 298 293 284 304 304 301 305 303 297 343 342 342 336 336 346 345 353 352 350 346 338 339 333 330 323 313 296 284 267 231 221
273 351 323 311 236 183 194 216 163 194 234 303 294 278 253 274 270 286 307 313 328 314 326 332 326 335 335 342 345 351 353 354 349 343 342 342 329 325 321 314 297 292 270 251
277 332 3 249 159 173 208 231 218 278 247 219 235 269 280 229 227 260 275 315 319 321 323 329 334 342 338 350 343 352 354 350 348 346 341 342 338 335 330 318 310 301 288 280
35 246 294 324 214 179 166 287 196 218 258 254 312 315 295 228 207 230 231 272 303 306 315 326 331 332 335 342 351 356 346 340 345 345 338 340 337 335 332 322 316 304 300 290
49 88 245 242 262 188 119 300 203 183 239 209 140 348 256 232 218 258 268 283 294 303 303 317 327 331 337 342 346 346 340 334 338 341 340 335 335 332 331 326 314 309 304 292
194 250 286 236 204 195 73 248 204 190 203 170 192 209 224 211 257 256 266 279 290 298 304 314 325 328 328 327 337 336 333 333 336 339 337 335 335 338 333 330 321 310 306 295
93 75 291 159 90 160 222 311 227 229 214 207 235 265 248 254 258 265 274 284 290 293 297 306 316 315 313 303 325 326 329 334 337 341 339 333 328 331 333 330 322 314 308 300
185 219 215 208 208 242 175 220 247 211 232 222 245 252 247 249 247 255 267 279 287 290 295 299 308 307 307 314 323 326 330 332 333 334 332 330 330 336 333 327 314 309 304 300
18 277 220 224 257 234 205 234 260 237 240 198 234 251 254 261 261 260 273 273 280 285 285 294 306 303 306 314 320 319 323 326 329 327 326 324 331 329 324 313 308 304 301 300
264 285 293 274 222 254 269 257 270 257 235 236 230 259 247 258 257 264 271 277 277 274 280 287 300 300 305 309 312 314 317 319 322 324 320 321 322 322 314 308 300 301 299 297
228 246 188 262 251 259 255 283 275 267 275 249 226 245 237 250 259 268 272 274 274 279 283 286 293 294 300 304 302 302 306 310 317 315 312 314 316 318 320 305 305 305 304 297
268 227 236 273 281 248 249 268 259 242 255 262 265 249 251 250 265 273 268 269 267 274 283 286 290 289 296 301 298 293 298 305 310 309 308 308 307 304 309 319 318 315 312 312
240 313 284 221 264 252 263 282 290 278 272 263 269 278 265 259 273 266 266 275 282 281 278 282 285 284 295 300 289 288 295 296 298 306 310 303 303 300 299 304 311 314 320 318
276 219 255 285 289 278 276 275 276 271 272 275 273 260 262 259 260 266 280 281 283 281 280 285 286 287 296 296 288 289 291 293 300 303 305 298 301 303 299 296 297 302 313 318
306 296 294 281 284 286 278 277 254 273 272 264 264 261 265 266 271 276 281 284 276 279 290 289 285 290 297 293 287 285 287 288 290 293 297 302 299 298 298 296 298 301 303 307
334 333 330 323 318 309 299 283 251 261 273 269 268 278 271 265 272 275 279 279 282 285 291 290 291 299 292 288 286 284 285 288 291 288 292 300 298 293 294 296 294 294 296 304
252 268 282 287 299 303 301 291 285 281 273 280 286 277 269 264 262 279 288 297 296 294 295 301 300 298 300 294 289 288 288 289 291 292 297 299 300 300 296 296 301 294 295 303
343 329 317 307 310 304 295 290 288 297 301 292 285 275 278 277 276 284 293 292 293 295 300 308 300 291 287 288 283 284 287 289 289 290 291 291 288 293 298 299 299 297 294 298
345 346 341 335 330 322 302 301 298 301 305 298 291 285 281 284 291 291 294 285 285 287 299 299 296 293 295 296 287 283 286 287 289 290 292 293 291 293 295 298 298 302 312 293
343 340 341 340 339 340 337 331 322 314 313 308 294 284 286 293 294 295 292 287 297 309 306 300 291 288 292 293 289 285 281 280 281 284 287 292 296 296 298 297 299 300 298 317
340 343 340 340 339 337 338 339 336 331 325 317 307 298 294 289 294 293 285 274 299 302 289 290 292 297 295 288 280 280 281 280 280 281 286 291 292 293 296 300 299 302 303 303
343 341 337 343 343 330 337 345 342 334 324 319 314 308 296 291 288 284 290 296 300 301 292 292 291 293 294 296 304 297 285 285 278 284 288 292 294 291 294 300 304 303 302 302
344 343 338 335 338 339 340 336 332 325 318 321 314 309 309 305 301 295 294 293 285 286 288 293 293 292 296 320 305 300 295 293 291 293 296 292 292 295 290 296 303 306 304 301
339 337 337 337 339 337 335 330 328 333 334 326 326 324 312 309 294 298 298 297 291 289 294 297 292 299 303 308 304 299 294 289 300 315 306 310 308 304 300 302 303 304 309 312
336 330 335 338 330 330 328 323 330 332 328 326 321 315 311 306 304 305 305 294 290 294 294 298 300 303 299 297 290 286 297 304 315 315 316 313 316 322 318 304 297 306 314 316
336 337 338 339 334 332 329 334 335 324 328 323 309 310 325 318 314 314 314 313 307 304 305 305 300 314 311 316 312 321 326 327 346 341 338 342 339 337 345 352 350 331 328 327